Regional Weather Roundup
Issued by NWS

Home | Current Version | Previous Version | Graphics & Text | Print | Product List | Glossary On
Versions: 1 2 3 4 5 6 7 8 9 10 11 12 13 14 15 16 17 18 19 20 21 22 23 24 25 26 27 28 29 30 31 32 33 34 35 36 37 38 39 40 41 42 43 44 45 46 47 48 49 50
000
ASUS43 KDTX 250310
RWRMI
MICHIGAN HOURLY REGIONAL WEATHER ROUNDUP
NATIONAL WEATHER SERVICE DETROIT/PONTIAC MI
1100 PM EDT SUN JUL 24 2016

NOTE: "FAIR" INDICATES FEW OR NO CLOUDS BELOW 12,000 FEET WITH NO
SIGNIFICANT WEATHER AND/OR OBSTRUCTION TO VISIBILITY.

MIZ047>049-052>055-059>063-066>070-074>076-081>083-250400-
SOUTHEAST LOWER MICHIGAN

CITY           SKY/WX    TMP DP  RH WIND       PRES   REMARKS
ADRIAN         PTCLDY    78  76  93 SW5       29.92F
ALMA           MOCLDY    82  79  91 S6        29.85F HX  91
ANN ARBOR      PTCLDY    77  74  90 SE5       29.91F
BAD AXE        CLOUDY    78  72  81 S10G16    29.85F
CARO           PTCLDY    80  74  83 S9        29.84F
DETROIT CITY   CLOUDY    78  71  79 S8        29.91S
DETROIT        PTCLDY    77  72  84 S8        29.91F
FLINT          CLOUDY    83  74  74 S9        29.88S
GROSSE ILE     PTCLDY    78  74  88 S8        29.91S
HOWELL         CLOUDY    79  76  89 S6        29.90F

CITY           SKY/WX    TMP DP  RH WIND       PRES   REMARKS
JACKSON        CLOUDY    80  77  90 S7        29.91F
LAMBERTVILLE   CLEAR     79  74  84 S3        29.93S
LANSING        CLOUDY    82  75  79 S14       29.88S
LAPEER         FAIR      78  73  83 SW8       29.88F
MASON          CLOUDY    80  75  85 S3        29.90F
MONROE         CLEAR     78  74  87 SE7       29.91S
MT. CLEMENS    PTCLDY    77  71  82 S8        29.87F
PONTIAC        MOCLDY    78  72  81 S8        29.90F
PORT HOPE        N/A     80  72  76 VRB6      29.82S
PORT HURON     CLOUDY    77  70  78 S7        29.89F
TRI CITIES     PTCLDY    82  77  84 S9        29.84F HX  90
MIDLAND        MOCLDY    82  75  81 SW7       29.83S
TROY           CLEAR     80  71  72 S5        29.92F
SAGINAW HB     MOCLDY    81  73  78 S13       29.84S
$$
MIZ043>046-050>051-056>058-064>065-071>073-077>080-250400-
SOUTHWEST LOWER MICHIGAN

CITY           SKY/WX    TMP DP  RH WIND       PRES   REMARKS
BATTLE CREEK   CLOUDY    79  77  94 S12       29.90F
BENTON HARBOR  CLOUDY    79  65  62 SW9       29.88F
BIG RAPIDS     CLOUDY    75  75 100 SW3       29.86S
COLDWATER      PTCLDY    81  76  86 CALM      29.91F
FREMONT        MOCLDY    79  78  99 W3        29.85R
HOLLAND        CLOUDY    82  67  60 SW13      29.88R
GRAND RAPIDS   CLOUDY    83  76  79 SW9       29.86S HX  91
IONIA          MOCLDY    82  74  76 S12       29.85F
KALAMAZOO      CLOUDY    83  76  79 S10       29.89S HX  91
LUDINGTON      CLOUDY    73  72  98 SW3       29.84S FOG
MARSHALL       CLOUDY    81  78  92 S5        29.89F
MOUNT PLEASANT CLOUDY    82  77  87 CALM      29.83S
MUSKEGON       CLOUDY    77  74  90 SW12      29.86R THUNDER
SOUTH HAVEN    CLOUDY    81  68  65 SW12G20   29.88R
$$
MIZ016>042-250400-
NORTHERN LOWER MICHIGAN

CITY           SKY/WX    TMP DP  RH WIND       PRES   REMARKS
ALPENA         MOCLDY    78  71  79 S7        29.80S
BEAVER ISLAND  CLOUDY    70  69  98 CALM      29.81R FOG
BELLAIRE       MOCLDY    77  74  91 CALM      29.81R
CADILLAC       CLOUDY    77  75  94 SW5       29.86R FOG
CHARLEVOIX     PTCLDY    75  74  95 SW10      29.82F
FRANKFORT      PTCLDY    72  69  92 CALM      29.82S FOG
GAYLORD        MOCLDY    77  73  87 W7        29.84R FOG
GRAYLING       MOCLDY    79  76  90 W5        29.84S
HARBOR SPRINGS CLOUDY    74  73  98 NW5       29.80S FOG
HOUGHTON LAKE  CLOUDY    79  76  90 NW8       29.85R
MANISTEE       CLEAR     73  72  96 W3        29.83R FOG
OSCODA         RAIN      77  73  88 S13       29.81F
PELLSTON       CLOUDY    74  72  93 W8        29.81R FOG
ROGERS CITY    CLOUDY    77  70  79 SW5       29.80S
TRAVERSE CITY  CLEAR     79  74  84 SW7       29.80R
$$
MIZ007>008-015-250400-
EASTERN UPPER MICHIGAN

CITY           SKY/WX    TMP DP  RH WIND       PRES   REMARKS
KINROSS        FOG       70  70 100 W7        29.81R VSB 3/4
MACKINAC ISLAN FOG       70  70 100 W8        29.81R VSB 3/4
NEWBERRY       MOCLDY    68  67  97 CALM      29.81R FOG
S. S. MARIE    CLOUDY    72  70  93 W5        29.79R FOG
MUNISING         N/A     69  67  93 S3        29.80R
$$
MIZ004>006-011>014-085-250400-
CENTRAL UPPER MICHIGAN

CITY           SKY/WX    TMP DP  RH WIND       PRES   REMARKS
MANISTIQUE     MOCLDY    69  68  97 N5        29.80S
ESCANABA         N/A    N/A N/A N/A MISG        N/A
MENOMINEE      CLEAR     73  68  84 MISG        N/A
SAWYER-GWINN   MOCLDY    73  61  66 NW7       29.85R
$$
MIZ001>003-009>011-084-250400-
WESTERN UPPER MICHIGAN

CITY           SKY/WX    TMP DP  RH WIND       PRES   REMARKS
IRON MOUNTAIN  CLOUDY    75  62  64 NW6       29.84R
HOUGHTON       PTCLDY    70  59  68 W12       29.81R
COPPER HARBOR    N/A     73  58  59 VRB7      29.77S
IRONWOOD       CLEAR     68  63  83 W7        29.85S
$$

ABBREVIATIONS USED IN REMARKS
   TC - TEMPERATURE IN CELSIUS
  WCI - WIND CHILL INDEX
   HX - HEAT INDEX
  VSB - VISIBILITY




USA.gov is the U.S. government's official web portal to all federal, state and local government web resources and services.